This is the latest recevied weather packets stored in our database for station/object OH3FZQ-L1. If no packets are shown the sender has not sent any weather packets the latest 10 day(s).
| Time | Temp. | Humidity | Pressure | Rain* | Wind** | Luminosity | Snow |
|---|---|---|---|---|---|---|---|
| 1777652694 | 23.89° C | 45% | 1007.1 hPa | - | - | - | - |
| 1777651794 | 23.89° C | 45% | 1007.2 hPa | - | - | - | - |
| 1777650893 | 23.89° C | 44% | 1007.3 hPa | - | - | - | - |
| 1777649996 | 23.89° C | 44% | 1007.4 hPa | - | - | - | - |
| 1777649096 | 23.89° C | 45% | 1007.5 hPa | - | - | - | - |
| 1777648195 | 23.89° C | 46% | 1007.7 hPa | - | - | - | - |
| 1777647296 | 23.89° C | 45% | 1008 hPa | - | - | - | - |
| 1777646395 | 23.89° C | 45% | 1008.1 hPa | - | - | - | - |
| 1777645495 | 23.89° C | 44% | 1008.2 hPa | - | - | - | - |
| 1777644595 | 23.89° C | 44% | 1008.5 hPa | - | - | - | - |
| 1777643695 | 23.89° C | 43% | 1008.7 hPa | - | - | - | - |
| 1777642795 | 23.89° C | 42% | 1008.8 hPa | - | - | - | - |
| 1777641895 | 23.89° C | 41% | 1009 hPa | - | - | - | - |
| 1777640995 | 23.89° C | 43% | 1009.1 hPa | - | - | - | - |
| 1777640094 | 23.33° C | 44% | 1009.3 hPa | - | - | - | - |
| 1777639194 | 23.33° C | 45% | 1009.4 hPa | - | - | - | - |
| 1777638294 | 22.78° C | 43% | 1009.5 hPa | - | - | - | - |
| 1777637394 | 22.78° C | 43% | 1009.8 hPa | - | - | - | - |
| 1777636494 | 22.78° C | 41% | 1010.1 hPa | - | - | - | - |
| 1777635594 | 22.78° C | 40% | 1010.2 hPa | - | - | - | - |
| 1777634693 | 22.78° C | 40% | 1010.2 hPa | - | - | - | - |
| 1777633793 | 23.33° C | 44% | 1010.5 hPa | - | - | - | - |
| 1777632893 | 22.78° C | 44% | 1010.6 hPa | - | - | - | - |
| 1777631993 | 22.78° C | 43% | 1010.8 hPa | - | - | - | - |
| 1777631092 | 22.78° C | 43% | 1011.1 hPa | - | - | - | - |
* Rain since midnight (hover to see other rain measurements)
** Current wind speed in m/s (hover to see current wind gust speed)